Marrakech, Morocco

6:40 AM WET on January 24, 2017 (GMT +0000)
Menara

Weather History for GMMX - September, 2012

Change the Weather History Date:

Wednesday, September 26, 2012

  Actual Average Record
Temperature  
Mean Temperature 76 °F -  
Max Temperature 88 °F 82 °F 98 °F (2007)
Min Temperature 63 °F 59 °F 33 °F (2000)
Cooling Degree Days 10    
Growing Degree Days 26 (Base 50)    
Moisture  
Dew Point 61 °F    
Average Humidity 61    
Maximum Humidity 88    
Minimum Humidity 39    
Precipitation  
Precipitation 0.00 in 0.03 in - ()
Sea Level Pressure  
Sea Level Pressure 29.90 in    
Wind  
Wind Speed 5 mph ()    
Max Wind Speed 17 mph    
Max Gust Speed 24 mph    
Visibility 6.0 miles    
Events      
Averages and records for this station are not official NWS values.
T = Trace of Precipitation, MM = Missing Value Source: Averaged Metar Reports

Daily Weather History Graph

Daily Weather History Graph

Search for Another Location

Airport or City:

Trip Planner

Search our weather history database for the weather conditions in past years. The results will help you decide how hot, cold, wet, or windy it might be!

Date:

Astronomy

Sep. 26, 2012 Rise Set
Actual Time 7:22 AM WEST 7:23 PM WEST
Civil Twilight 6:58 AM WEST 7:47 PM WEST
Nautical Twilight 6:30 AM WEST 8:15 PM WEST
Astronomical Twilight 6:01 AM WEST 8:44 PM WEST
Moon 5:05 PM WEST (9/26) 3:46 AM WEST (9/26)
Length of Visible Light 12h 48m
Length of Day
12h 00m
Waxing Gibbous, 86% of the Moon is Illuminated
Sep 26
Waxing Gibbous
Sep 30
Full
Oct 8
Last Quarter
Oct 15
New
Oct 22
First Quarter

Hourly Weather History & Observations

Time (WEST) Temp. Heat Index Dew Point Humidity Pressure Visibility Wind Dir Wind Speed Gust Speed Precip Events Conditions
12:00 AM 73.4 °F - 60.8 °F 65% 29.95 in - ENE 6.9 mph - N/A   Clear
12:30 AM 71.6 °F - 60.8 °F 69% 29.95 in - ENE 5.8 mph - N/A   Clear
1:00 AM 71 °F - 60 °F 59% 29.90 in 6 mi East 4.6 mph - -  
1:00 AM 71.6 °F - 59.0 °F 64% 29.95 in - East 4.6 mph - N/A   Clear
1:30 AM 71.6 °F - 60.8 °F 69% 29.95 in - ESE 3.5 mph - N/A   Clear
2:00 AM 69.8 °F - 60.8 °F 73% 29.95 in - East 2.3 mph - N/A   Clear
2:30 AM 69.8 °F - 60.8 °F 73% 29.92 in - Calm Calm - N/A   Clear
3:00 AM 69.8 °F - 60.8 °F 73% 29.92 in - Calm Calm - N/A   Clear
3:30 AM 69.8 °F - 60.8 °F 73% 29.92 in - Calm Calm - N/A   Clear
4:00 AM 65 °F - 61 °F 83% 29.87 in 6 mi Calm Calm - -  
4:00 AM 66.2 °F - 60.8 °F 83% 29.92 in - Calm Calm - N/A   Clear
4:30 AM 64.4 °F - 60.8 °F 88% 29.89 in - West 4.6 mph - N/A   Clear
5:00 AM 66.2 °F - 60.8 °F 83% 29.89 in - WSW 5.8 mph - N/A   Clear
5:30 AM 64.4 °F - 60.8 °F 88% 29.89 in - WSW 5.8 mph - N/A   Clear
6:00 AM 68.0 °F - 60.8 °F 78% 29.89 in - SSW 4.6 mph - N/A   Clear
6:30 AM 68.0 °F - 60.8 °F 78% 29.89 in - South 5.8 mph - N/A   Clear
7:00 AM 68 °F - 62 °F 76% 29.85 in 6 mi South 4.6 mph - -  
7:00 AM 68.0 °F - 62.6 °F 83% 29.89 in - South 4.6 mph - N/A   Clear
7:30 AM 68.0 °F - 62.6 °F 83% 29.89 in 6.2 mi South 2.3 mph - N/A   Partly Cloudy
8:00 AM 69.8 °F - 62.6 °F 78% 29.89 in 6.2 mi Calm Calm - N/A   Scattered Clouds
8:30 AM 71.6 °F - 64.4 °F 78% 29.92 in 6.2 mi SE 2.3 mph - N/A   Scattered Clouds
9:00 AM 71.6 °F - 62.6 °F 73% 29.92 in 5.6 mi Calm Calm - N/A   Scattered Clouds
9:30 AM 75.2 °F - 62.6 °F 65% 29.92 in 6.2 mi Calm Calm - N/A   Scattered Clouds
10:00 AM 79 °F - 61 °F 44% 29.85 in 6 mi NNW 2.3 mph - -   Partly Cloudy
10:00 AM 80.6 °F 81.8 °F 62.6 °F 54% 29.92 in 6.2 mi Variable 1.2 mph - N/A   Scattered Clouds
10:30 AM 82.4 °F 82.9 °F 60.8 °F 48% 29.92 in 6.2 mi Calm Calm - N/A   Scattered Clouds
11:00 AM 80.6 °F 81.8 °F 62.6 °F 54% 29.92 in 3.1 mi Variable 1.2 mph - N/A   Scattered Clouds
11:30 AM 82.4 °F 82.9 °F 60.8 °F 48% 29.92 in 5.0 mi WSW 4.6 mph - N/A   Scattered Clouds
12:00 PM 80.6 °F 81.8 °F 62.6 °F 54% 29.92 in 6.2 mi West 6.9 mph - N/A   Scattered Clouds
12:30 PM 82.4 °F 83.9 °F 64.4 °F 54% 29.92 in 6.2 mi West 10.4 mph - N/A   Scattered Clouds
1:00 PM 83 °F - 62 °F 39% 29.83 in 6 mi West 10.4 mph - -   Partly Cloudy
1:00 PM 82.4 °F 83.4 °F 62.6 °F 51% 29.92 in 6.2 mi West 10.4 mph - N/A   Scattered Clouds
1:30 PM 84.2 °F 85.0 °F 62.6 °F 48% 29.92 in 6.2 mi West 12.7 mph - N/A   Scattered Clouds
2:00 PM 84.2 °F 85.0 °F 62.6 °F 48% 29.89 in 6.2 mi West 15.0 mph - N/A   Scattered Clouds
2:30 PM 84.2 °F 85.0 °F 62.6 °F 48% 29.89 in 6.2 mi West 16.1 mph - N/A   Scattered Clouds
3:00 PM 82.4 °F 83.4 °F 62.6 °F 51% 29.89 in 6.2 mi West 17.3 mph - N/A   Scattered Clouds
3:30 PM 82.4 °F 83.4 °F 62.6 °F 51% 29.89 in 6.2 mi West 16.1 mph - N/A   Scattered Clouds
4:00 PM 83 °F - 63 °F 40% 29.80 in 6 mi West 15.0 mph - -   Partly Cloudy
4:00 PM 82.4 °F 83.4 °F 62.6 °F 51% 29.89 in 6.2 mi West 15.0 mph - N/A   Scattered Clouds
4:30 PM 84.2 °F 85.0 °F 62.6 °F 48% 29.89 in 6.2 mi WNW 11.5 mph - N/A   Scattered Clouds
5:00 PM 84.2 °F 85.0 °F 62.6 °F 48% 29.89 in 6.2 mi WNW 11.5 mph 24.2 mph N/A   Scattered Clouds
5:30 PM 82.4 °F 82.9 °F 60.8 °F 48% 29.89 in 6.2 mi West 11.5 mph - N/A   Scattered Clouds
6:00 PM 80.6 °F 81.5 °F 60.8 °F 51% 29.89 in 6.2 mi WNW 11.5 mph - N/A   Scattered Clouds
6:30 PM 80.6 °F 81.5 °F 60.8 °F 51% 29.89 in 6.2 mi West 6.9 mph - N/A   Scattered Clouds
7:00 PM 79 °F - 60 °F 41% 29.81 in 6 mi West 10.4 mph - -   Partly Cloudy
7:00 PM 78.8 °F - 59.0 °F 51% 29.89 in 6.2 mi West 9.2 mph - N/A   Scattered Clouds
7:30 PM 78.8 °F - 59.0 °F 51% 29.89 in 6.2 mi WNW 12.7 mph - N/A   Scattered Clouds
8:00 PM 77.0 °F - 60.8 °F 57% 29.89 in 6.2 mi West 13.8 mph - N/A   Scattered Clouds
8:30 PM 77.0 °F - 59.0 °F 54% 29.89 in 6.2 mi West 11.5 mph - N/A   Scattered Clouds
9:00 PM 77.0 °F - 59.0 °F 54% 29.92 in 6.2 mi WNW 11.5 mph - N/A   Scattered Clouds
9:30 PM 75.2 °F - 59.0 °F 57% 29.92 in 6.2 mi West 11.5 mph - N/A   Scattered Clouds
10:00 PM 74 °F - 60 °F 52% 29.86 in 6 mi West 5.8 mph - -   Partly Cloudy
10:00 PM 73.4 °F - 60.8 °F 65% 29.92 in 6.2 mi West 6.9 mph - N/A   Scattered Clouds
10:30 PM 73.4 °F - 59.0 °F 61% 29.92 in 6.2 mi West 4.6 mph - N/A   Scattered Clouds
11:00 PM 73.4 °F - 60.8 °F 65% 29.92 in 6.2 mi WSW 4.6 mph - N/A   Scattered Clouds
11:30 PM 73.4 °F - 60.8 °F 65% 29.92 in 6.2 mi West 4.6 mph - N/A   Scattered Clouds